STARLINK-34499, 64709

Orbit data source: Space-Track

STARLINK-34499, 64709 is a payload satellite owned by SpaceX/Seattle (US) in LEO that was launched on Sat, 28 Jun 2025 UTC via an FALCON 9 launch vehicle from the Air Force Western Test Range (AFWTR). Payload-class satellites include a variety of spacecraft equipped with specific instruments for various scientific and technological missions. These include communications satellites like Starlink; space stations such as the ISS; scientific satellites like the Hubble; Earth observation satellites from companies like Planet Labs, Umbra, and HawkEye 360; GPS; miniature CubeSats for education and research; and military/defense satellites.

Loading next visibility...
Identifier
64709, 2025-142P
Orbit
LEO
Country
Flag of USUS
Related business
Manufacturer
SpaceX/Seattle
Mission
Operational Commercial Communications
Bus & Motor
STARLINK V2MO, Unknown motor
Mass
575 kg wet, ~530 kg dry
Launch date (UTC)
2025-06-28 (1 year ago)
Launch vehicle
FALCON 9
Launch site
Air Force Western Test Range (AFWTR)
Object type
Payload
Rocket body
Debris
Shape & HBR
Box + 1 Pan, 17.7 m
Radar Cross Section
41.120 m², Large (>1 m²)

Expand to show TLE details & history
Last TLE update: 12 hours ago

TLE from 12 hours ago
0 STARLINK-34499
1 64709U 25142P   26264.19948968  .00008487  00000-0  29928-3 0  9994
2 64709  70.0013 179.2004 0002757 270.6150  89.4709 15.29586343 68809
Epoch: 2026-09-21T04:47Z
TLE epoch observation values (Epoch: 2026-09-21T04:47:15.908Z)
Latitude
-0.00004°
Longitude
107.30136°
Altitude
479.489 km
Speed
7.626 km/s
True Right ascension
11h 56m 48s
True Declination
0° 00' 00"
Sunlit
Object was in daylight at epoch
Visualization orbit readout
Latitude
Unknown
Longitude
Unknown
Altitude
Unknown
Speed
Unknown
Apparent Right ascension
Unknown
Apparent Declination
Unknown
Sunlit
N/A
Visualization observer readout
Local Sidereal Time
09:56:46
Azimuth
Unknown
Elevation
Unknown
Doppler factor
Unknown
Orbital elements
Apogee altitude
476.857 km
Perigee altitude
473.078 km
Semi-major axis
6,853.105 km
Eccentricity
0.00028
Inclination
70.0013°
RAAN
179.2004°
Arg. of periapsis
270.615°
True anomaly
89.50249°
Mean anomaly
89.4709°
Eccentric anomaly
89.4867°
Mean motion
3.82571 °/min
Orbital period
94.1 mins
BSTAR
0.00029928
Loading maneuver chart data...
Computing Atmospheric mass density...
Loading historical data...
Loading historical data...
Loading historical data...
Loading historical data...
Loading historical data...
Loading historical data...
Loading historical data...

Documentation

Showing up to 5 results
|